This demonstration page uses our WeatherBlox Daily Observations layout. Learn more.

Left ArrowRight Arrow

39.08367, -84.50855

Hourly Observations for December 2, 2022

Temp ( °F °C ) Dew Point ( °F °C ) Humidity (%) Winds ( mph kmh ) Pressure ( in mb ) Visibility ( mi km ) Precip ( " mm )
12:53 am 00:53 Clear 25 -3.9 21 -6.1 85 85 Calm 30.40 1029 10 16 0.00 0.00
1:53 am 01:53 Clear 25 -3.9 22 -5.6 88 88 Calm 30.39 1029 10 16 0.00 0.00
2:53 am 02:53 Mostly Cloudy 24 -4.4 22 -5.6 91 91 Calm 30.37 1029 9 14 0.00 0.00
3:53 am 03:53 Cloudy 27 -2.8 25 -3.9 92 92 Calm 30.36 1028 9 14 0.00 0.00
4:53 am 04:53 Cloudy 31 -0.6 25 -3.9 78 78 SW 6 9 30.35 1028 10 16 0.00 0.00
5:53 am 05:53 Cloudy 32 0 23 -5 69 69 SW 7 11 30.35 1028 10 16 0.00 0.00
6:53 am 06:53 Mostly Cloudy 33 0.6 23 -5 66 66 SW 5 7 30.34 1028 10 16 0.00 0.00
7:53 am 07:53 Cloudy 34 1.1 24 -4.4 67 67 SW 5 7 30.35 1028 10 16 0.00 0.00
8:53 am 08:53 Cloudy 36 2.2 24 -4.4 62 62 S 7 11 30.32 1027 10 16 0.00 0.00
9:53 am 09:53 Cloudy 39 3.9 24 -4.4 55 55 S 9 15 30.32 1027 10 16 0.00 0.00
10:53 am 10:53 Cloudy 43 6.1 25 -3.9 49 49 S 10 17 30.29 1026 10 16 0.00 0.00
11:53 am 11:53 Cloudy 47 8.3 26 -3.3 44 44 S 12 19 30.24 1024 10 16 0.00 0.00
12:53 pm 12:53 Mostly Cloudy 50 10 27 -2.8 40 40 S 6 9 30.20 1023 10 16 0.01 0.13
1:53 pm 13:53 Mostly Cloudy 54 12.2 28 -2.2 37 37 SSW 14 22 30.15 1021 10 16 0.01 0.13
2:53 pm 14:53 Mostly Sunny 58 14.4 28 -2.2 32 32 SSW 15 24 30.12 1020 10 16 0.00 0.00
3:53 pm 15:53 Mostly Cloudy 58 14.4 28 -2.2 32 32 S 20 31 30.10 1019 10 16 0.00 0.00
4:53 pm 16:53 Mostly Cloudy 57 13.9 31 -0.6 37 37 S 14 22 30.10 1019 10 16 0.00 0.00
5:53 pm 17:53 Cloudy 57 13.9 34 1.1 42 42 SSW 16 26 30.08 1019 10 16 0.00 0.00
6:53 pm 18:53 Cloudy with Light Rain 56 13.3 40 4.4 55 55 SSW 18 30 30.07 1018 6 10 0.01 0.13
7:53 pm 19:53 Cloudy 52 11.1 42 5.6 69 69 S 10 17 30.08 1019 10 16 0.01 0.25
8:53 pm 20:53 Cloudy 53 11.7 43 6.1 68 68 S 15 24 30.05 1018 10 16 0.01 0.13
9:53 pm 21:53 Cloudy 54 12.2 45 7.2 71 71 S 16 26 30.01 1016 10 16 0.01 0.13
10:53 pm 22:53 Cloudy with Light Rain 54 12.2 46 7.8 74 74 SSW 21 33 30.01 1016 7 11 0.01 0.25
11:53 pm 23:53 Cloudy with Light Rain 54 12.2 46 7.8 74 74 SSW 20 31 29.99 1016 10 16 0.01 0.25

Powered by AerisWeather